Other Surface Observations
Issued by NWS Tucson, AZ

Home | Current Version | Previous Version | Text Only | Print | Product List | Glossary On
Versions: 1 2 3 4 5 6 7 8 9 10 11 12 13 14 15 16 17 18 19 20 21 22 23 24 25 26 27 28 29 30 31 32 33 34 35 36 37 38 39 40 41 42 43 44 45 46 47 48 49 50
626
SXUS55 KTWC 191415
OSOTWC

WEATHER ROUNDUP FOR SOUTHEAST ARIZONA
NATIONAL WEATHER SERVICE TUCSON AZ
715 AM MST MON FEB 19 2018

AZZ504>506-514-191515-
LOCATION       SKY/WX    TMP DP  RH WIND       PRES   REMARKS
TUCSON         MOCLDY    58  46  64 SW9       29.82R
DAVIS-MONTHAN  CLOUDY    56  51  83 SW8       29.80R
CHILDRENS PARK N/A      N/A N/A  80 S2                PIMA CO DEQ
ALVERNON/22ND  N/A       55 N/A N/A NE1               PIMA CO DEQ
CHERRY/GLENN   N/A      N/A N/A N/A N/A               PIMA CO DEQ
TANGERINE      N/A       55 N/A N/A W2                PIMA CO DEQ
CONTL RANCH    N/A       53  49  87 NW1               PIMA CO DEQ
GRANT/1ST      N/A       57  48  72 S3                PIMA CO DEQ
CRAYCROFT/22ND N/A       56  51  82 NE2               PIMA CO DEQ
GOLFLINKS/KOLB N/A       56  49  77 S3                PIMA CO DEQ
AJO/12TH       N/A       57  48  72 S4                PIMA CO DEQ
FAIRGROUNDS    N/A       55 N/A N/A SW8               PIMA CO DEQ
SAGUARO        N/A       55  50  82 NW2               *SABINO CYN
SAN CARLOS     N/A       52  47  82 CALM              *SAN CARLOS
GREEN VALLEY   N/A       54  51  90 SW11              PIMA CO DEQ
HORSE CAMP CYN N/A       50  47  91 SW7G17            *ARAVAIPA CYN
RINCON MTNS    N/A       36  36  100 SW7G22           *NR MANNING CAMP
$$

AZZ509>511-191515-
LOCATION       SKY/WX    TMP DP  RH WIND       PRES   REMARKS
SAFFORD        PTCLDY    50  49  96 SE6       29.75S
STRAY HORSE    N/A       34  32  91 W11G29            *
TRAIL CABIN    N/A       41  38  88 W5G17             *N OF GRANVILLE
BLACK HILLS    NOT AVBL
DRY LAKE       N/A       35  35  100 SW11G25          *NATANES MTNS
NOON CREEK     N/A       48  40  75 S4G15             *PINALENO MTNS
COLUMBINE      N/A       30  30  100 SW9G25           *PINALENO MTNS
GUTHRIE        N/A       41  29  63 W10G20            *SW OF GUTHRIE
$$

AZZ502-503-513-191515-
LOCATION       SKY/WX    TMP DP  RH WIND       PRES   REMARKS
NOGALES        CLOUDY    50  49  96 S10       29.84S
SELLS          N/A       55  50  82 N10G15            *
SASABE         N/A       52  48  85 SW13G19           *ALTAR VLY
HOPKINS        N/A       40  40  100 W12G34           *SANTA RITA MTNS
CARR CYN       N/A       47  40  76 SW6G23            *W OF HEREFORD
$$

AZZ507-508-512-191515-
LOCATION       SKY/WX    TMP DP  RH WIND       PRES   REMARKS
SIERRA VISTA   CLOUDY    51  41  69 S12       29.85R
DOUGLAS        CLEAR     49  41  74 VRB6      29.87R
EMPIRE MTNS    NOT AVBL
MULESHOE RANCH N/A       49  45  85 W5G15             *PRESERVE
HEADQUARTERS   N/A       47  40  77 SW9G20            *CHIRICAHUA MTNS
$$

.............................NOTES.............................
THIS IS AN AUTOMATED COLLECTIVE WITH MINIMAL QUALITY CONTROL.
PIMA CO DEQ SITES HAVE NONSTANDARD WIND SENSOR HEIGHTS.
PIMA CO DEQ SITES DO NOT REPORT WIND GUSTS.
* INDICATES WIND SENSORS LOCATED AT 20 FEET INSTEAD OF 33 FEET.
..............................KEY..............................
SKY/WX - SKY CONDITION/WEATHER
TMP    - TEMPERATURE IN FAHRENHEIT
DP     - DEWPOINT IN FAHRENHEIT
RH     - RELATIVE HUMIDITY IN PERCENT
WIND   - DIRECTION AND SPEED IN MILES PER HOUR (MPH)
VRB    - VARIABLE WIND DIRECTION
PRES   - MEAN SEA LEVEL PRESSURE IN INCHES OF MERCURY
         F - FALLING PRESSURE   R - RISING PRESSURE
         S - STEADY PRESSURE
VSB    - VISIBILITY IN MILES
HX     - HEAT INDEX IN FAHRENHEIT
WCI    - WIND CHILL INDEX IN FAHRENHEIT
N/A    - NOT AVAILABLE
AFB    - AIR FORCE BASE
         DAVIS-MONTHAN IS DAVIS-MONTHAN AIR FORCE BASE
CYN    - CANYON
MTNS   - MOUNTAINS
NCA    - NATIONAL CONSERVATION AREA
NR     - NEAR
VLY    - VALLEY
CONTL  - CONTINENTAL
PIMA CO DEQ - PIMA COUNTY DEPT OF ENVIRONMENTAL QUALITY



USA.gov is the U.S. government's official web portal to all federal, state and local government web resources and services.